IBB9GU GCRR-GCXO

Flight info

Callsign IBB9GU
Flight time 0h 38m
Altitude 17000
Route LARYS
Aircraft AT76/M-SDFGIRY/S

Departure

Time 2026-05-03 21:01
Airport César Manrique-Lanzarote Airport (GCRR)

Arrival

Time 2026-05-03 21:40
Airport Tenerife Norte-Ciudad de La Laguna Airport (GCXO)
Time Latitude Longitude Altitude Speed Heading
2026-05-03 21:01 29.01468 -13.68822 10203 ft 186 kts 263°
2026-05-03 21:01 29.01303 -13.70313 10423 ft 195 kts 263°
2026-05-03 21:01 29.01132 -13.71902 10501 ft 208 kts 263°
2026-05-03 21:02 29.00934 -13.73595 10550 ft 222 kts 262°
2026-05-03 21:02 29.00720 -13.75388 10566 ft 233 kts 262°
2026-05-03 21:02 29.00497 -13.77235 10581 ft 242 kts 262°
2026-05-03 21:02 29.00261 -13.79170 10589 ft 249 kts 262°
2026-05-03 21:03 29.00020 -13.81152 10587 ft 255 kts 262°
2026-05-03 21:03 28.99775 -13.83170 10594 ft 259 kts 262°
2026-05-03 21:03 28.99525 -13.85220 10594 ft 261 kts 262°
2026-05-03 21:03 28.99272 -13.87287 10598 ft 263 kts 263°
2026-05-03 21:04 28.99020 -13.89365 10603 ft 265 kts 262°
2026-05-03 21:04 28.98766 -13.91453 10606 ft 266 kts 263°
2026-05-03 21:04 28.98511 -13.93549 10608 ft 267 kts 262°
2026-05-03 21:04 28.98253 -13.95649 10612 ft 267 kts 263°
2026-05-03 21:05 28.97997 -13.97755 10614 ft 268 kts 262°
2026-05-03 21:05 28.97736 -13.99865 10619 ft 268 kts 263°
2026-05-03 21:05 28.97477 -14.01979 10619 ft 269 kts 263°
2026-05-03 21:05 28.97220 -14.04063 10621 ft 269 kts 262°
2026-05-03 21:06 28.96960 -14.06178 10621 ft 269 kts 262°
2026-05-03 21:06 28.96700 -14.08291 10624 ft 269 kts 262°
2026-05-03 21:06 28.96439 -14.10401 10626 ft 269 kts 262°
2026-05-03 21:06 28.96177 -14.12513 10626 ft 269 kts 262°
2026-05-03 21:07 28.95917 -14.14625 10627 ft 269 kts 262°
2026-05-03 21:07 28.95654 -14.16738 10627 ft 269 kts 262°
2026-05-03 21:07 28.95391 -14.18850 10622 ft 269 kts 262°
2026-05-03 21:07 28.95129 -14.20965 10624 ft 269 kts 262°
2026-05-03 21:08 28.94865 -14.23075 10618 ft 269 kts 262°
2026-05-03 21:08 28.94604 -14.25187 10620 ft 269 kts 263°
2026-05-03 21:08 28.94338 -14.27303 10620 ft 269 kts 262°
2026-05-03 21:08 28.94080 -14.29389 10620 ft 262 kts 262°
2026-05-03 21:09 28.93823 -14.31424 10624 ft 257 kts 263°
2026-05-03 21:09 28.93574 -14.33429 10622 ft 253 kts 263°
2026-05-03 21:09 28.93323 -14.35409 10622 ft 251 kts 262°
2026-05-03 21:09 28.93081 -14.37349 10624 ft 249 kts 262°
2026-05-03 21:10 28.92836 -14.39300 10626 ft 247 kts 262°
2026-05-03 21:10 28.92591 -14.41238 10626 ft 246 kts 262°
2026-05-03 21:10 28.92349 -14.43168 10626 ft 245 kts 262°
2026-05-03 21:10 28.92105 -14.45092 10624 ft 245 kts 262°
2026-05-03 21:11 28.91862 -14.47019 10622 ft 244 kts 262°
2026-05-03 21:11 28.91620 -14.48935 10624 ft 244 kts 262°
2026-05-03 21:11 28.91377 -14.50852 10626 ft 244 kts 262°
2026-05-03 21:11 28.91135 -14.52767 10626 ft 244 kts 262°
2026-05-03 21:12 28.90891 -14.54680 10624 ft 243 kts 262°
2026-05-03 21:12 28.90649 -14.56590 10625 ft 243 kts 262°
2026-05-03 21:12 28.90408 -14.58500 10626 ft 243 kts 262°
2026-05-03 21:12 28.90162 -14.60411 10623 ft 243 kts 262°
2026-05-03 21:13 28.89919 -14.62323 10627 ft 244 kts 262°
2026-05-03 21:13 28.89674 -14.64239 10626 ft 244 kts 262°
2026-05-03 21:13 28.89430 -14.66153 10624 ft 244 kts 262°
2026-05-03 21:13 28.89186 -14.68071 10624 ft 244 kts 262°
2026-05-03 21:14 28.88939 -14.69987 10624 ft 244 kts 262°
2026-05-03 21:14 28.88694 -14.71900 10626 ft 244 kts 262°
2026-05-03 21:14 28.88450 -14.73813 10625 ft 244 kts 262°
2026-05-03 21:14 28.88206 -14.75704 10627 ft 244 kts 262°
2026-05-03 21:15 28.87960 -14.77617 10626 ft 244 kts 262°
2026-05-03 21:15 28.87793 -14.78909 10627 ft 244 kts 262°
2026-05-03 21:15 28.87468 -14.81445 10628 ft 244 kts 262°
2026-05-03 21:15 28.87224 -14.83360 10627 ft 244 kts 262°
2026-05-03 21:16 28.87021 -14.84645 10624 ft 244 kts 258°
2026-05-03 21:16 28.86572 -14.86517 10625 ft 244 kts 255°
2026-05-03 21:16 28.86095 -14.88342 10625 ft 244 kts 255°
2026-05-03 21:16 28.85622 -14.90202 10623 ft 244 kts 256°
2026-05-03 21:17 28.85184 -14.92071 10627 ft 244 kts 256°
2026-05-03 21:17 28.84691 -14.93921 10627 ft 244 kts 249°
2026-05-03 21:17 28.83990 -14.95662 10626 ft 239 kts 246°
2026-05-03 21:17 28.83257 -14.97370 10626 ft 240 kts 245°
2026-05-03 21:18 28.82543 -14.99100 10622 ft 241 kts 247°
2026-05-03 21:18 28.81869 -15.00860 10624 ft 242 kts 248°
2026-05-03 21:18 28.81208 -15.02631 10624 ft 243 kts 248°
2026-05-03 21:18 28.80540 -15.04405 10624 ft 244 kts 248°
2026-05-03 21:19 28.79872 -15.06182 10626 ft 244 kts 248°
2026-05-03 21:19 28.79202 -15.07957 10625 ft 244 kts 248°
2026-05-03 21:19 28.78529 -15.09739 10625 ft 244 kts 248°
2026-05-03 21:19 28.77858 -15.11522 10623 ft 245 kts 248°
2026-05-03 21:20 28.77184 -15.13302 10625 ft 245 kts 248°
2026-05-03 21:20 28.76513 -15.15084 10626 ft 245 kts 248°
2026-05-03 21:20 28.75848 -15.16842 10627 ft 245 kts 248°
2026-05-03 21:20 28.75174 -15.18625 10627 ft 245 kts 248°
2026-05-03 21:21 28.74502 -15.20408 10626 ft 245 kts 248°
2026-05-03 21:21 28.73825 -15.22192 10623 ft 245 kts 248°
2026-05-03 21:21 28.73152 -15.23974 10624 ft 245 kts 248°
2026-05-03 21:21 28.72476 -15.25755 10623 ft 245 kts 248°
2026-05-03 21:22 28.71801 -15.27536 10619 ft 245 kts 248°
2026-05-03 21:22 28.71126 -15.29318 10619 ft 245 kts 248°
2026-05-03 21:22 28.70450 -15.31098 10619 ft 245 kts 248°
2026-05-03 21:22 28.69774 -15.32882 10619 ft 245 kts 248°
2026-05-03 21:23 28.69137 -15.34559 10620 ft 245 kts 248°
2026-05-03 21:23 28.68462 -15.36339 10618 ft 244 kts 248°
2026-05-03 21:23 28.67789 -15.38109 10619 ft 243 kts 248°
2026-05-03 21:23 28.67115 -15.39876 10617 ft 242 kts 248°
2026-05-03 21:24 28.66455 -15.41615 10619 ft 242 kts 248°
2026-05-03 21:24 28.65786 -15.43370 10617 ft 242 kts 248°
2026-05-03 21:24 28.65122 -15.45116 10619 ft 241 kts 248°
2026-05-03 21:24 28.64462 -15.46849 10619 ft 241 kts 248°
2026-05-03 21:25 28.63794 -15.48601 10613 ft 241 kts 248°
2026-05-03 21:25 28.63130 -15.50348 10617 ft 240 kts 248°
2026-05-03 21:25 28.62463 -15.52092 10618 ft 240 kts 248°
2026-05-03 21:25 28.61800 -15.53833 10620 ft 240 kts 248°
2026-05-03 21:26 28.61179 -15.55456 10612 ft 240 kts 248°
2026-05-03 21:26 28.60496 -15.57246 10310 ft 252 kts 248°
2026-05-03 21:26 28.59787 -15.59106 10007 ft 261 kts 248°
2026-05-03 21:26 28.59095 -15.60916 9696 ft 266 kts 248°
2026-05-03 21:27 28.58384 -15.62769 9375 ft 270 kts 248°
2026-05-03 21:27 28.57627 -15.64746 9043 ft 274 kts 248°
2026-05-03 21:27 28.56864 -15.66738 8797 ft 274 kts 248°
2026-05-03 21:27 28.56108 -15.68719 8617 ft 272 kts 248°
2026-05-03 21:28 28.55362 -15.70665 8417 ft 272 kts 248°
2026-05-03 21:28 28.54606 -15.72630 8223 ft 271 kts 248°
2026-05-03 21:28 28.53851 -15.74599 8030 ft 271 kts 248°
2026-05-03 21:28 28.53097 -15.76562 7852 ft 271 kts 248°
2026-05-03 21:29 28.52345 -15.78530 7646 ft 268 kts 248°
2026-05-03 21:29 28.51653 -15.80337 7401 ft 229 kts 248°
2026-05-03 21:29 28.51049 -15.81900 7127 ft 206 kts 248°
2026-05-03 21:29 28.50484 -15.83365 6804 ft 203 kts 249°
2026-05-03 21:30 28.49910 -15.84853 6502 ft 207 kts 249°
2026-05-03 21:30 28.49333 -15.86361 6201 ft 214 kts 249°
2026-05-03 21:30 28.48729 -15.87927 5922 ft 220 kts 249°
2026-05-03 21:30 28.48097 -15.89562 5666 ft 229 kts 249°
2026-05-03 21:31 28.47456 -15.91245 5440 ft 235 kts 249°
2026-05-03 21:31 28.46825 -15.92876 5275 ft 237 kts 249°
2026-05-03 21:31 28.46173 -15.94583 5204 ft 233 kts 249°
2026-05-03 21:31 28.45533 -15.96254 5168 ft 228 kts 249°
2026-05-03 21:32 28.44902 -15.97888 5141 ft 223 kts 249°
2026-05-03 21:32 28.44278 -15.99487 5136 ft 219 kts 248°
2026-05-03 21:32 28.43666 -16.01055 5127 ft 218 kts 249°
2026-05-03 21:32 28.43037 -16.02694 5133 ft 231 kts 249°
2026-05-03 21:33 28.42416 -16.04331 5130 ft 220 kts 250°
2026-05-03 21:33 28.41842 -16.05862 5133 ft 207 kts 250°
2026-05-03 21:33 28.41293 -16.07328 5125 ft 196 kts 249°
2026-05-03 21:33 28.40790 -16.08632 5132 ft 187 kts 250°
2026-05-03 21:34 28.40354 -16.09965 5127 ft 171 kts 269°
2026-05-03 21:34 28.40557 -16.11220 5140 ft 158 kts 290°
2026-05-03 21:34 28.40917 -16.12374 5140 ft 154 kts 294°
2026-05-03 21:34 28.41319 -16.13497 5138 ft 152 kts 294°
2026-05-03 21:35 28.41713 -16.14605 5135 ft 150 kts 295°
2026-05-03 21:35 28.42095 -16.15698 5129 ft 149 kts 295°
2026-05-03 21:35 28.42476 -16.16787 5126 ft 147 kts 295°
2026-05-03 21:35 28.42846 -16.17870 5128 ft 147 kts 294°
2026-05-03 21:36 28.43221 -16.18951 5132 ft 148 kts 294°
2026-05-03 21:36 28.43592 -16.20040 5132 ft 148 kts 294°
2026-05-03 21:36 28.43975 -16.21159 4896 ft 150 kts 294°
2026-05-03 21:36 28.44330 -16.22238 4605 ft 141 kts 294°
2026-05-03 21:37 28.44646 -16.23218 4393 ft 122 kts 294°
2026-05-03 21:37 28.44929 -16.24135 4168 ft 125 kts 294°
2026-05-03 21:37 28.45232 -16.25086 3947 ft 132 kts 294°
2026-05-03 21:37 28.45553 -16.26068 3724 ft 137 kts 295°
2026-05-03 21:38 28.45882 -16.27077 3464 ft 133 kts 295°
2026-05-03 21:38 28.46220 -16.28074 3118 ft 137 kts 296°
2026-05-03 21:38 28.46556 -16.29056 2778 ft 127 kts 296°
2026-05-03 21:38 28.46867 -16.29982 2577 ft 124 kts 293°
2026-05-03 21:39 28.47183 -16.30925 2423 ft 129 kts 293°
2026-05-03 21:39 28.47500 -16.31866 2201 ft 132 kts 290°
2026-05-03 21:39 28.47816 -16.32802 2046 ft 124 kts 290°
2026-05-03 21:39 28.48052 -16.33516 2038 ft 53 kts 291°
2026-05-03 21:40 28.48163 -16.33842 2042 ft 37 kts 292°
2026-05-03 21:40 28.48241 -16.34073 2047 ft 26 kts 300°
2026-05-03 21:40 28.48344 -16.34183 2048 ft 17 kts 320°
2026-05-03 21:40 28.48409 -16.34246 2049 ft 8 kts 319°
2026-05-03 21:41 28.48427 -16.34273 2050 ft 6 kts 289°
2026-05-03 21:41 28.48467 -16.34405 2056 ft 17 kts 288°
2026-05-03 21:41 28.48499 -16.34506 2060 ft 12 kts 291°
2026-05-03 21:41 28.48529 -16.34595 2065 ft 12 kts 291°
2026-05-03 21:42 28.48560 -16.34686 2070 ft 9 kts 290°
2026-05-03 21:42 28.48571 -16.34720 2071 ft 3 kts 289°
2026-05-03 21:42 28.48578 -16.34744 2073 ft 2 kts 291°
2026-05-03 21:42 28.48582 -16.34746 2073 ft 0 kts 334°
2026-05-03 21:43 28.48592 -16.34741 2072 ft 5 kts 17°
2026-05-03 21:43 28.48626 -16.34726 2070 ft 0 kts 20°
2026-05-03 21:44 28.48651 -16.34715 2070 ft 16 kts 20°
2026-05-03 21:44 28.48692 -16.34698 2069 ft 0 kts 21°
2026-05-03 21:44 28.48691 -16.34698 2069 ft 3 kts 23°
2026-05-03 21:45 28.48692 -16.34698 2069 ft 0 kts 23°